OBJECT P (43771 NORAD) Tracking and Keplerian Element Data

This shows tracking and keplerian element data for the satellite.

Feedback or suggestion? Click here.




ElementValue
Catalog43771
NameOBJECT P
Epoch Orbit1394
Epoch Day66.14093537
Epoch Year2019
RAAN139.2879
Inclination97.7553
Eccentricity0.0013581
Argument of Perigee323.5908
Mean Anonmoly36.4387
Mean Motion14.94699509
Decay Rate6.21E-06
L11 43771U 18099P 19066.14093537 .00000621 00000-0 62509-4 0 9998
L22 43771 97.7553 139.2879 0013581 323.5908 36.4387 14.94699509 13941

Live tracking and technical data element details for OBJECT P (NORAD 43771). OBJECT P can be tracked NOW for your location showing map with azimuth and elevation plus other details from your city location.

Track the satellite on the map from your city or location and see movement details for azimuth, elevation, latitude, longitude, range, height, and movement on the map or in text.







IsCatalogInMostPopularTable: catalog: 43771, numindb: 73
Update: records affected: 1



GetName: 43771 OBJECT P

Hit Count: updated at: Fri, 19 Jul 2019 22:39:42 GMT